TimeCST,TemperatureF,Dew PointF,Humidity,Sea Level PressureIn,VisibilityMPH,Wind Direction,Wind SpeedMPH,Gust SpeedMPH,PrecipitationIn,Events,Conditions,WindDirDegrees,DateUTC
12:52 AM,25.0,15.1,66,30.31,10.0,North,13.8,-,N/A,,Clear,360,2013-01-21 06:52:00
1:52 AM,24.1,14.0,65,30.33,10.0,North,11.5,-,N/A,,Clear,360,2013-01-21 07:52:00
2:52 AM,23.0,14.0,68,30.35,10.0,North,10.4,-,N/A,,Clear,360,2013-01-21 08:52:00
3:52 AM,21.0,14.0,74,30.36,10.0,North,9.2,-,N/A,,Clear,360,2013-01-21 09:52:00
4:52 AM,21.0,12.0,68,30.36,10.0,North,10.4,-,N/A,,Clear,360,2013-01-21 10:52:00
5:52 AM,19.9,12.0,71,30.38,10.0,North,8.1,-,N/A,,Clear,360,2013-01-21 11:52:00
6:52 AM,18.0,12.0,78,30.39,10.0,NNW,6.9,-,N/A,,Clear,340,2013-01-21 12:52:00
7:52 AM,19.0,12.0,74,30.39,10.0,North,6.9,-,N/A,,Clear,360,2013-01-21 13:52:00
8:52 AM,21.9,10.0,60,30.41,10.0,North,6.9,-,N/A,,Clear,360,2013-01-21 14:52:00
9:52 AM,26.1,9.0,49,30.40,10.0,NNE,6.9,-,N/A,,Clear,20,2013-01-21 15:52:00
10:52 AM,28.9,10.9,47,30.41,10.0,North,12.7,-,N/A,,Clear,350,2013-01-21 16:52:00
11:52 AM,30.0,10.9,45,30.40,10.0,North,16.1,20.7,N/A,,Clear,350,2013-01-21 17:52:00
12:52 PM,30.9,10.9,43,30.37,10.0,NW,10.4,-,N/A,,Clear,310,2013-01-21 18:52:00
1:52 PM,32.0,12.0,44,30.36,10.0,NNW,10.4,23.0,N/A,,Clear,330,2013-01-21 19:52:00
2:52 PM,33.1,12.0,42,30.36,10.0,North,10.4,-,N/A,,Clear,10,2013-01-21 20:52:00
3:52 PM,32.0,14.0,48,30.36,10.0,NNW,9.2,-,N/A,,Partly Cloudy,330,2013-01-21 21:52:00
4:52 PM,28.9,12.9,51,30.36,10.0,NW,9.2,-,N/A,,Clear,310,2013-01-21 22:52:00
5:52 PM,25.0,10.9,55,30.36,10.0,NNE,11.5,-,N/A,,Clear,20,2013-01-21 23:52:00
6:52 PM,23.0,10.9,60,30.37,10.0,North,8.1,-,N/A,,Scattered Clouds,10,2013-01-22 00:52:00
7:52 PM,21.9,10.9,63,30.37,10.0,NNE,6.9,-,N/A,,Clear,20,2013-01-22 01:52:00
8:52 PM,19.9,10.0,65,30.38,10.0,North,6.9,-,N/A,,Clear,10,2013-01-22 02:52:00
9:52 PM,21.0,10.9,65,30.37,10.0,Calm,Calm,-,N/A,,Mostly Cloudy,0,2013-01-22 03:52:00
10:52 PM,23.0,10.9,60,30.38,10.0,NNE,4.6,-,N/A,,Overcast,20,2013-01-22 04:52:00
11:52 PM,21.9,10.9,63,30.36,10.0,NNE,4.6,-,N/A,,Clear,20,2013-01-22 05:52:00